Wind_Speed
10 11 11 12 12 12 12 11 12 12 12 12 12 13 13 14 14 15 15 16 16 16 16 16 17 17 17 18 19 19 20 21 21 22 22 22 22 22
12 12 12 12 12 13 13 13 13 13 13 13 14 14 14 14 15 15 16 16 17 17 17 17 18 18 19 19 19 20 21 22 23 24 24 24 24 24
12 13 13 13 14 14 14 14 14 13 13 13 14 14 15 14 15 15 15 16 16 16 17 17 18 19 19 20 21 21 22 23 24 25 25 25 25 25
13 13 13 14 14 14 15 14 14 14 14 14 14 15 15 16 16 15 15 15 16 17 17 18 18 19 20 21 22 23 24 24 25 26 26 27 27 27
14 14 14 14 14 14 15 15 15 15 15 15 15 15 16 16 16 16 17 17 18 18 18 19 20 21 22 22 23 24 25 25 26 27 27 28 28 29
15 15 15 15 15 15 15 16 16 16 16 16 16 16 16 17 17 18 18 18 19 19 19 20 21 22 23 24 25 26 26 27 28 28 29 29 30 31
17 16 16 16 16 16 16 16 17 17 16 17 17 17 17 18 18 18 19 19 20 20 21 21 22 23 24 25 26 27 27 28 28 29 29 30 30 31
18 18 18 18 18 17 17 17 17 17 17 17 18 18 18 18 19 19 20 20 21 22 22 23 24 25 26 26 27 27 27 28 28 29 30 31 32 32
19 19 20 20 19 19 19 19 19 19 20 21 20 20 20 20 20 21 22 22 23 23 24 25 26 27 27 27 28 28 28 29 30 31 31 32 33 34
20 20 20 20 20 20 20 20 21 21 22 22 22 22 23 23 23 23 24 24 24 25 26 26 27 28 28 29 29 29 30 31 32 33 34 34 35 35
19 19 19 19 20 20 21 21 22 22 23 23 24 24 24 24 25 25 25 25 25 26 27 28 28 29 29 30 30 31 32 33 34 34 34 36 37 37
20 19 19 20 21 21 21 22 22 22 23 23 24 24 24 24 25 25 26 26 26 27 28 29 29 30 30 31 31 32 33 34 35 35 36 37 38 39
21 20 20 21 21 21 22 22 22 23 23 24 24 25 25 25 25 25 26 27 27 27 28 29 30 30 31 31 32 33 35 35 36 36 37 38 38 39
22 22 21 22 22 22 22 23 23 23 24 24 24 25 25 26 26 26 27 27 28 29 29 30 30 31 32 32 33 34 35 36 36 36 37 38 38 38
22 22 22 22 23 23 22 23 24 24 24 25 25 25 26 27 27 27 28 29 30 30 31 31 32 32 33 34 35 36 36 37 37 38 38 39 39 39
22 22 23 23 23 23 23 24 25 26 26 26 26 26 27 27 27 28 29 29 30 30 31 32 33 34 35 36 37 37 38 38 38 40 40 40 41 41
23 24 23 24 24 24 25 25 26 26 26 26 26 27 28 28 29 30 30 30 31 31 32 33 34 35 36 37 38 38 39 40 40 41 42 42 43 43
25 25 25 25 25 25 26 26 26 27 27 27 27 28 29 30 30 31 31 31 32 32 33 35 36 37 37 38 39 39 39 41 42 42 43 43 44 44
25 26 26 26 26 26 27 27 27 27 27 27 28 29 30 31 31 31 32 33 33 34 35 36 38 39 39 39 39 40 41 42 43 44 44 44 45 45
26 26 27 27 27 27 28 27 27 27 27 28 29 29 30 31 31 32 33 34 35 35 37 38 39 40 41 41 40 41 42 43 44 45 45 45 45 45
27 27 27 27 28 28 28 28 28 28 28 29 30 30 31 32 32 33 34 35 36 37 38 39 40 41 42 42 42 42 43 44 45 45 46 46 45 45
28 28 28 28 28 29 29 29 29 29 30 31 31 32 33 33 34 35 36 37 38 38 40 41 42 43 43 43 43 43 44 45 46 46 46 46 46 45
29 29 29 29 29 30 30 31 31 31 31 31 32 33 34 34 35 36 37 38 39 40 41 42 43 44 44 44 44 45 45 46 46 46 46 45 45 46
Wind_Direction
273 272 272 273 274 276 276 279 283 283 283 283 286 289 291 290 287 287 287 288 289 289 289 290 290 291 291 292 291 289 289 290 292 293 293 291 290 289
273 274 275 275 275 276 279 281 282 283 284 284 285 290 292 291 290 289 288 288 289 290 288 289 290 291 291 292 293 292 291 291 292 294 294 291 289 289
272 273 276 276 276 277 278 279 280 282 283 284 285 288 290 292 292 291 290 290 291 290 289 289 291 292 292 293 293 294 294 293 293 294 296 294 291 289
273 273 273 275 276 276 277 278 279 283 284 284 285 288 290 291 292 292 292 292 294 293 291 290 291 293 294 295 295 295 297 297 295 296 297 295 293 290
272 273 274 276 276 276 277 277 278 281 281 284 286 288 290 291 290 292 293 294 295 295 293 292 293 294 295 296 297 297 297 297 297 298 297 297 294 292
271 273 274 274 275 276 278 277 279 280 281 282 286 289 290 291 291 292 294 296 298 298 296 295 295 296 296 296 297 297 297 297 297 297 297 298 296 294
271 272 273 272 274 275 277 276 277 278 278 281 284 287 290 291 291 291 293 295 297 298 298 296 297 298 299 298 298 297 297 298 298 298 298 299 300 298
272 273 272 272 272 273 274 275 277 277 278 280 284 286 289 290 292 292 292 293 294 295 296 295 296 298 299 299 298 298 299 298 299 299 299 300 300 299
271 272 271 271 273 274 273 273 275 276 277 279 282 284 287 288 290 292 293 293 294 295 295 296 297 299 300 299 298 298 298 298 298 298 299 300 300 300
271 272 272 273 273 274 273 273 275 276 277 279 281 283 285 285 287 289 290 291 292 294 296 297 297 298 299 299 299 299 298 298 298 298 298 299 299 300
271 273 272 273 275 275 275 275 276 278 279 280 281 283 284 285 287 289 290 291 292 294 296 297 298 298 298 299 300 300 300 299 299 299 299 300 300 300
273 274 273 273 276 278 277 278 279 280 282 283 284 284 285 285 287 290 291 293 294 294 296 297 298 299 299 299 300 300 301 300 300 299 300 300 301 301
272 275 276 276 278 280 280 280 280 281 282 284 285 287 287 287 288 290 292 294 295 296 298 298 299 300 300 300 300 301 301 301 301 301 300 301 301 302
270 272 274 276 278 280 280 281 281 282 282 283 284 286 288 289 291 292 292 293 295 297 299 299 300 301 301 301 301 302 302 302 301 301 301 301 302 302
269 270 273 276 278 280 281 281 282 283 283 285 285 286 288 290 292 293 293 294 296 297 298 299 299 300 300 301 302 302 303 302 302 302 302 301 302 302
267 270 273 276 278 280 281 281 282 283 284 285 285 286 287 289 291 293 294 296 297 297 298 299 300 301 301 301 302 302 302 303 303 302 302 302 302 302
270 272 275 277 278 280 281 282 282 283 284 284 284 286 288 290 291 293 294 296 297 298 299 300 301 301 301 302 302 302 302 303 303 303 302 302 302 302
271 273 275 277 278 279 281 283 283 283 282 283 284 287 289 290 292 293 294 296 297 298 299 300 300 300 301 303 303 303 303 304 304 304 303 303 303 303
272 275 276 277 278 279 280 282 282 283 282 284 286 288 289 290 291 293 294 296 297 298 299 300 301 301 302 303 303 304 304 304 304 304 304 304 304 303
272 275 277 277 277 278 280 281 281 281 282 285 287 288 289 290 291 293 294 296 297 298 300 301 302 303 303 303 303 303 304 305 305 305 305 305 304 304
272 274 276 277 277 278 280 281 280 281 283 285 286 287 289 290 292 294 295 297 298 299 300 302 303 303 304 303 304 304 304 304 305 305 306 305 305 304
273 274 275 275 276 278 279 280 280 281 283 285 286 288 290 291 292 294 296 297 298 300 301 302 303 304 304 304 304 304 305 305 306 306 307 307 306 306
273 273 274 275 276 277 279 280 280 282 283 285 287 289 290 292 294 296 297 298 299 300 301 302 303 304 304 304 304 304 305 305 306 307 307 307 307 306
Height
5845 5844 5844 5843 5843 5842 5841 5841 5840 5839 5838 5837 5836 5835 5833 5832 5831 5830 5829 5827 5826 5824 5823 5821 5820 5818 5816 5814 5813 5811 5809 5807 5805 5803 5800 5797 5794 5792
5842 5841 5841 5840 5839 5839 5838 5837 5837 5836 5835 5834 5832 5831 5830 5829 5827 5826 5825 5823 5822 5820 5819 5817 5815 5813 5812 5810 5808 5806 5804 5802 5800 5797 5794 5792 5789 5787
5838 5838 5837 5837 5836 5835 5834 5834 5833 5832 5831 5830 5829 5828 5826 5825 5824 5822 5820 5819 5817 5816 5814 5813 5811 5809 5807 5805 5803 5801 5798 5796 5794 5791 5788 5786 5783 5781
5835 5834 5834 5833 5832 5832 5831 5830 5829 5828 5828 5826 5825 5824 5823 5821 5820 5818 5816 5815 5813 5811 5810 5808 5806 5804 5802 5800 5798 5795 5793 5790 5787 5785 5782 5779 5777 5774
5831 5830 5830 5829 5828 5828 5827 5826 5825 5824 5823 5822 5821 5820 5819 5817 5816 5814 5812 5810 5809 5807 5805 5803 5801 5799 5797 5794 5792 5789 5786 5784 5781 5778 5775 5772 5769 5766
5826 5826 5825 5825 5824 5823 5823 5822 5821 5820 5819 5818 5817 5816 5814 5813 5811 5809 5808 5806 5804 5802 5800 5798 5796 5793 5791 5788 5785 5783 5780 5777 5774 5771 5767 5764 5761 5758
5821 5821 5820 5820 5819 5819 5818 5818 5817 5816 5815 5814 5813 5811 5810 5808 5806 5804 5803 5801 5799 5797 5795 5792 5790 5788 5785 5782 5779 5775 5772 5769 5766 5763 5760 5756 5753 5750
5816 5816 5815 5815 5814 5814 5813 5812 5812 5811 5810 5809 5808 5806 5805 5803 5801 5799 5797 5796 5794 5792 5789 5787 5784 5781 5778 5775 5772 5768 5765 5762 5759 5756 5752 5749 5745 5741
5810 5810 5809 5809 5808 5808 5807 5807 5806 5805 5804 5803 5802 5801 5799 5798 5796 5794 5792 5790 5788 5785 5783 5780 5777 5774 5771 5767 5764 5761 5758 5755 5751 5748 5744 5741 5737 5733
5804 5803 5803 5803 5802 5802 5801 5800 5800 5799 5798 5797 5796 5795 5793 5791 5789 5787 5785 5783 5781 5778 5775 5773 5770 5767 5763 5760 5756 5753 5750 5746 5743 5739 5735 5731 5728 5723
5798 5797 5797 5797 5796 5795 5795 5794 5793 5792 5791 5790 5789 5787 5786 5784 5782 5781 5778 5776 5774 5771 5768 5765 5762 5759 5756 5752 5748 5745 5741 5737 5734 5730 5726 5722 5718 5713
5792 5791 5791 5790 5790 5789 5788 5787 5786 5785 5784 5783 5782 5781 5779 5777 5775 5773 5771 5769 5767 5764 5761 5758 5755 5751 5748 5744 5740 5737 5733 5729 5724 5720 5716 5712 5707 5703
5785 5785 5784 5783 5783 5782 5781 5780 5779 5778 5777 5776 5775 5773 5772 5770 5768 5766 5764 5761 5759 5756 5754 5750 5747 5743 5739 5736 5732 5728 5724 5719 5715 5711 5706 5702 5697 5692
5779 5778 5778 5777 5776 5775 5774 5773 5772 5771 5770 5768 5767 5766 5765 5763 5760 5758 5756 5753 5751 5748 5745 5742 5738 5735 5731 5727 5724 5719 5714 5710 5705 5701 5696 5692 5687 5682
5771 5771 5770 5769 5769 5768 5767 5765 5764 5763 5762 5761 5760 5759 5757 5755 5753 5751 5748 5746 5743 5740 5736 5733 5730 5726 5722 5718 5714 5710 5705 5700 5695 5690 5686 5681 5677 5672
5763 5763 5763 5762 5761 5760 5759 5758 5757 5755 5754 5753 5752 5751 5749 5747 5745 5743 5740 5738 5735 5732 5728 5725 5721 5717 5713 5709 5704 5700 5695 5690 5685 5680 5675 5670 5666 5660
5756 5755 5755 5754 5753 5752 5751 5750 5749 5747 5746 5745 5744 5743 5741 5739 5737 5734 5732 5729 5726 5723 5720 5716 5712 5707 5703 5699 5694 5689 5685 5680 5674 5669 5664 5659 5654 5649
5748 5748 5747 5747 5746 5744 5743 5742 5740 5739 5738 5737 5736 5734 5733 5730 5728 5726 5723 5720 5717 5714 5710 5706 5702 5697 5693 5689 5684 5679 5674 5669 5663 5658 5652 5647 5642 5636
5740 5740 5739 5739 5738 5736 5735 5734 5733 5731 5730 5729 5727 5726 5724 5722 5719 5717 5714 5711 5708 5704 5701 5696 5692 5687 5683 5679 5674 5668 5662 5657 5651 5646 5640 5635 5629 5624
5732 5731 5731 5730 5729 5728 5727 5725 5724 5723 5721 5720 5719 5717 5715 5712 5710 5707 5705 5701 5698 5694 5690 5686 5681 5676 5671 5667 5662 5657 5651 5645 5639 5634 5628 5622 5616 5610
5723 5722 5722 5721 5720 5719 5718 5717 5715 5714 5713 5711 5710 5708 5705 5703 5700 5698 5695 5691 5688 5684 5680 5676 5671 5665 5660 5654 5650 5645 5640 5633 5627 5621 5615 5609 5603 5598
5714 5713 5713 5712 5711 5710 5709 5708 5706 5705 5704 5702 5700 5698 5696 5693 5690 5687 5684 5681 5677 5673 5669 5664 5659 5654 5648 5643 5638 5633 5627 5621 5615 5609 5602 5596 5590 5584
5704 5704 5703 5702 5702 5701 5700 5698 5697 5696 5694 5692 5691 5688 5686 5683 5680 5677 5673 5670 5666 5662 5657 5653 5648 5642 5636 5631 5625 5620 5615 5608 5602 5596 5591 5584 5578 5572